This is the latest recevied weather packets stored in our database for station/object DB0NLS-15. If no packets are shown the sender has not sent any weather packets the latest 10 day(s).
| Time | Temp. | Humidity | Pressure | Rain* | Wind** | Luminosity | Snow |
|---|---|---|---|---|---|---|---|
| 1777189526 | 7.78° C | 65% | 1012.6 hPa | 0 mm | - | - | - |
| 1777188924 | 7.78° C | 65% | 1012.5 hPa | 0 mm | - | - | - |
| 1777188321 | 7.78° C | 66% | 1012.4 hPa | 0 mm | - | - | - |
| 1777187774 | 7.22° C | 67% | 1012.3 hPa | 0 mm | - | - | - |
| 1777187171 | 7.22° C | 67% | 1012.4 hPa | 0 mm | - | - | - |
| 1777186562 | 6.67° C | 68% | 1012.1 hPa | 0 mm | - | - | - |
| 1777185960 | 6.67° C | 69% | 1012 hPa | 0 mm | - | - | - |
| 1777185350 | 6.11° C | 69% | 1012 hPa | 0 mm | - | - | - |
| 1777184748 | 6.11° C | 70% | 1011.8 hPa | 0 mm | - | - | - |
| 1777184145 | 6.11° C | 70% | 1011.7 hPa | 0 mm | - | - | - |
| 1777183539 | 5.56° C | 70% | 1011.6 hPa | 0 mm | - | - | - |
| 1777182935 | 5.56° C | 71% | 1011.5 hPa | 0 mm | - | - | - |
| 1777182326 | 5.56° C | 71% | 1011.2 hPa | 0 mm | - | - | - |
| 1777181724 | 5° C | 72% | 1011 hPa | 0 mm | - | - | - |
| 1777181121 | 5° C | 72% | 1010.9 hPa | 0 mm | - | - | - |
| 1777180574 | 5° C | 72% | 1010.7 hPa | 0 mm | - | - | - |
| 1777179971 | 5° C | 72% | 1010.6 hPa | 0 mm | - | - | - |
| 1777179362 | 4.44° C | 73% | 1010.3 hPa | 0 mm | - | - | - |
| 1777178760 | 4.44° C | 73% | 1010.1 hPa | 0 mm | - | - | - |
| 1777178157 | 3.89° C | 74% | 1009.9 hPa | 0 mm | - | - | - |
| 1777177550 | 3.89° C | 74% | 1009.7 hPa | 0 mm | - | - | - |
| 1777176947 | 4.44° C | 73% | 1009.4 hPa | 0 mm | - | - | - |
| 1777176339 | 4.44° C | 72% | 1009.2 hPa | 0 mm | - | - | - |
| 1777175736 | 4.44° C | 72% | 1009 hPa | 0 mm | - | - | - |
| 1777175133 | 4.44° C | 72% | 1009 hPa | 0 mm | - | - | - |
* Rain latest hour (hover to see other rain measurements)
** Current wind speed in m/s (hover to see current wind gust speed)